User: anonymous   Login
Location: *
(34.8620°S, 39.3380°E)
Time: 05:15:10
(UTC+00:00)
Language:

Cosmos 1300 - Orbit

View from above orbital plane
View from above orbital plane
View from above satellite
View from above satellite

Ground track
Ground track

The orbit data is extracted from the following two-line orbital elements,

1 12785U 81082A   21290.29506554  .00000881  00000-0  41437-4 0  9992
2 12785  82.5004 306.3710 0002593 113.2580 257.4151 15.18295056191933
Epoch (UTC): 17 October 2021 07:04:53
Eccentricity: 0.0002593
inclination: 82.5004°
perigee height: 509 km
apogee height: 513 km
right ascension of ascending node: 306.3710°
argument of perigee: 113.2580°
revolutions per day: 15.18295056
mean anomaly at epoch: 257.4151°
orbit number at epoch: 19193

The dashed part of the orbit path shows where the satellite is in the earth's shadow,  

DLR